Regional Weather Roundup
Issued by NWS Green Bay, WI

Home | Current Version | Previous Version | Graphics & Text | Print | Product List | Glossary Off
Versions: 1 2 3 4 5 6 7 8 9 10 11 12 13 14 15 16 17 18 19 20 21 22 23 24 25 26 27 28 29 30 31 32 33 34 35 36 37 38 39 40 41 42 43 44 45 46 47 48 49 50

000
ASUS43 KGRB 231100
RWRGRB

NORTH-CENTRAL AND NORTHEAST WISCONSIN REGIONAL WEATHER ROUNDUP
NATIONAL WEATHER SERVICE GREEN BAY WI
500 AM CST MON JAN 23 2017

WIZ005-009-010>012-018-019-231200-
NORTH CENTRAL WISCONSIN

CITY           SKY/WX    TMP DP  RH WIND       PRES   REMARKS
IRONWOOD       CLOUDY    34  33  96 CALM      29.75S
MANITOWISH WTR NOT AVBL
ARBOR VITAE    NOT AVBL
EAGLE RIVER    NOT AVBL
LAND O LAKES   NOT AVBL
RHINELANDER    CLOUDY    34  33  96 CALM      29.73S
PHILLIPS       CLOUDY    32  32 100 CALM      29.73F FOG
ANTIGO         NOT AVBL
TOMAHAWK       NOT AVBL
MERRILL        CLOUDY    33  33 100 CALM        N/A
$$

WIZ013-073-231200-
NORTHEAST WISCONSIN

CITY           SKY/WX    TMP DP  RH WIND       PRES   REMARKS
IRON MOUNTAIN  CLOUDY    34  31  88 NW7       29.70F
MARINETTE      NOT AVBL
$$

WIZ017-030-035>037-045-231200-
CENTRAL WISCONSIN

CITY           SKY/WX    TMP DP  RH WIND       PRES   REMARKS
MEDFORD        NOT AVBL
WAUSAU         CLOUDY    34  33  96 NW5       29.73R
MOSINEE        NOT AVBL
MARSHFIELD     CLOUDY    33  33 100 N3        29.73S FOG
WISC RAPIDS    CLOUDY    34  34 100 NW5       29.76S
STEVENS POINT  NOT AVBL
WAUPACA        NOT AVBL
SHAWANO        NOT AVBL
CLINTONVILLE   CLOUDY    36  34  93 NW6       29.73S
WAUTOMA        CLOUDY    35  34  96 NW5       29.75S
$$

WIZ038-039-048-051-231200-
FOX VALLEY

CITY           SKY/WX    TMP DP  RH WIND       PRES   REMARKS
NWS GREEN BAY  CLOUDY    37  37 100 NW5       29.73S
APPLETON       NOT AVBL
OSHKOSH        FOG       35  34  96 W7        29.73R VSB 3/4
FOND DU LAC    CLOUDY    36  33  89 NW8       29.73R FOG
$$

WIZ022-050-052-231200-
EAST CENTRAL WISCONSIN

CITY           SKY/WX    TMP DP  RH WIND       PRES   REMARKS
EPHRAIM        NOT AVBL
WASHINGTON ISL NOT AVBL
STURGEON BAY   FOG       35  35 100 NW5       29.73R VSB 1/4
MANITOWOC      FOG       36  36 100 MISG      29.73R VSB 3/4
SHEBOYGAN      FOG       36  35  96 NW5       29.72S VSB 1/2
$$

LMZ563-521-522-541>543-231200-
LAKESHORE

STATION/POSITION TIME  TEMP    WIND        PRES    VSBY  WAVE
                       AIR SEA DIR/SP/G                  HT/PER
                 (UTC) (F)     (DEG/KT/KT) (MB)    (MI)  (FT/S)
SHEBOYGAN LKSHOR 1000   37     310/  8/  9 1006.5R
KEWAUNEE LKSHORE 1030   36     300/  2/  5 1005.9S
NORTHPORT PIER   1040   35     300/  5/  8 1006.4R
SISTER BAY LKSHO 1005   33        CALM       N/A
MENOMINEE LKSHOR 1030          310/  6/  7 1005.9R
$$




USA.gov is the U.S. government's official web portal to all federal, state and local government web resources and services.